Showing default

SNUGLITE, 43784

Orbit data source: Space-Track

SNUGLITE, 43784 is a payload satellite owned by SNU (KR) in SSO that was launched on Mon, 03 Dec 2018 UTC via an FALCON 9 launch vehicle from the Air Force Western Test Range (AFWTR). Payload-class satellites include a variety of spacecraft equipped with specific instruments for various scientific and technological missions. These include communications satellites like Starlink; space stations such as the ISS; scientific satellites like the Hubble; Earth observation satellites from companies like Planet Labs, Umbra, and HawkEye 360; GPS; miniature CubeSats for education and research; and military/defense satellites.

Loading next visibility...
Identifier
43784, 2018-099AC
Orbit
SSO
Country
Flag of UnknownUnknown / SKOR
Related business
Manufacturer
SNU
Mission
Operational Amateur Technology
Bus & Motor
CUBESAT 2U, Unknown motor
Mass
2 kg wet, 2 kg dry
Launch date (UTC)
2018-12-03 (7 years ago)
Launch vehicle
FALCON 9
Launch site
Air Force Western Test Range (AFWTR)
Object type
Payload
Rocket body
Debris
Shape & HBR
Box + 1 Rod, 0.2 m
Radar Cross Section
0.025 m², Small (<0.1 m²)

Expand to show TLE details & history
Last TLE update: 18 hours ago

TLE from 18 hours ago
0 SNUGLITE
1 43784U 18099AC  25261.70608767  .00009367  00000-0  44577-3 0  9995
2 43784  97.4316 314.4263 0004408 145.3952 214.7570 15.19368396371981
Epoch: 2025-09-18T16:56Z
TLE epoch observation values (Epoch: 2025-09-18T16:56:45.974Z)
Latitude
-0.00007°
Longitude
62.37091°
Altitude
513.332 km
Speed
7.606 km/s
True Right ascension
20h 57m 42s
True Declination
0° 00' 00"
Sunlit
Object was in full shadow at epoch
Visualization orbit readout
Latitude
Unknown
Longitude
Unknown
Altitude
Unknown
Speed
Unknown
Apparent Right ascension
Unknown
Apparent Declination
Unknown
Sunlit
N/A
Visualization observer readout
Local Sidereal Time
03:55:27
Azimuth
Unknown
Elevation
Unknown
Doppler factor
Unknown
Orbital elements
Apogee altitude
507.75 km
Perigee altitude
501.682 km
Semi-major axis
6,882.853 km
Eccentricity
0.00044
Inclination
97.4316°
RAAN
314.4263°
Arg. of periapsis
145.3952°
True anomaly
214.72822°
Mean anomaly
214.757°
Eccentric anomaly
214.74261°
Mean motion
3.80093 °/min
Orbital period
94.71 mins
BSTAR
0.00044577
Loading maneuver chart data...
Computing Atmospheric mass density...
Loading historical data...
Loading historical data...
Loading historical data...
Loading historical data...
Loading historical data...
Loading historical data...
Loading historical data...

Documentation

Showing up to 5 results
|